Regional Weather Roundup
Issued by NWS

Home | Current Version | Previous Version | Text Only | Print | Product List | Glossary On
Versions: 1 2 3 4 5 6 7 8 9 10 11 12 13 14 15 16 17 18 19 20 21 22 23 24 25 26 27 28 29 30 31 32 33 34 35 36 37 38 39 40 41 42 43 44 45 46 47 48 49 50
000
ASUS43 KMKX 221321
RWRWI

WISCONSIN REGIONAL WEATHER ROUNDUP
NATIONAL WEATHER SERVICE MILWAUKEE/SULLIVAN WI
800 AM CDT TUE JUL 22 2014

NOTE: "FAIR" INDICATES FEW OR NO CLOUDS BELOW 12,000 FEET WITH NO
SIGNIFICANT WEATHER AND/OR OBSTRUCTIONS TO VISIBILITY.

WIZ001-002-006>008-014>016-023>028-221400-
NORTHWEST WISCONSIN

CITY           SKY/WX    TMP DP  RH WIND       PRES   REMARKS
SUPERIOR ARPT  CLOUDY    71  66  82 W15G21    29.82R
ASHLAND        PTSUNNY   72  65  78 W12G21    29.80R
HAYWARD        PTSUNNY   72  65  78 W8        29.87R
SIREN          CLOUDY    71  64  81 W12G21    29.90R
RICE LAKE      SUNNY     75  63  65 W13G20    29.89R
LADYSMITH      CLOUDY    78  73  86 SW10      29.86R
EAU CLAIRE     SUNNY     81  75  82 SW10      29.86R HX  87
MENOMONIE      SUNNY     81  74  79 SW12G18   29.87R HX  87
NEW RICHMOND   SUNNY     73  63  68 NW16G22   29.92R
OSCEOLA        PTSUNNY   72  64  77 NW13G22   29.95R
$$

WIZ003>005-009-010-017-018-221400-
NORTH CENTRAL WISCONSIN

CITY           SKY/WX    TMP DP  RH WIND       PRES   REMARKS
WOODRUFF       CLOUDY    77  74  90 SW12      29.84R
RHINELANDER    CLOUDY    72  69  90 SW13      29.87R
EAGLE RIVER    CLOUDY    73  67  81 SW9G20    29.82F
LAND O LAKES   CLOUDY    73  70  90 SW10G20   29.82F FOG
PHILLIPS       CLOUDY    75  72  88 SW13G20   29.84R
TOMAHAWK       CLOUDY    73  69  86 S6        29.88R
MEDFORD        CLOUDY    73  70  89 SW14      29.89R
MERRILL        CLOUDY    74  70  87 SW12      29.88R
$$

WIZ029-030-035-036-043>047-221400-
CENTRAL WISCONSIN

CITY           SKY/WX    TMP DP  RH WIND       PRES   REMARKS
WAUSAU         CLOUDY    75  69  81 SW13      29.87R
MOSINEE        CLOUDY    73  70  88 SW12G18   29.90R
MARSHFIELD     CLOUDY    75  70  84 SW10      29.90R
STEVENS POINT  MOSUNNY   74  67  78 SW12      29.90R
WAUPACA        MOSUNNY   78  69  74 SW12G17   29.89S HX  80
WAUTOMA        MOSUNNY   78  69  73 S9        29.91F HX  80
WISC RAPIDS    MOSUNNY   77  69  76 S12       29.91R
CAMP DOUGLAS   PTSUNNY   77  72  83 SW7       29.91R
$$

WIZ011>013-019>022-031-037>040-048>050-221400-
NORTHEAST WISCONSIN

CITY           SKY/WX    TMP DP  RH WIND       PRES   REMARKS
ANTIGO         CLOUDY    71  68  91 SW14G20   29.89S
STURGEON BAY   CLOUDY    72  64  78 S15G22    29.89F
GREEN BAY      PTSUNNY   76  68  76 S14G24    29.89F
MANITOWOC      LGT RAIN  70  66  87 S8        29.94S
APPLETON       PTSUNNY   73  66  78 SW12G25   29.91F
CLINTONVILLE   CLOUDY    75  68  78 SW12      29.88S
OSHKOSH        PTSUNNY   76  68  76 S18G26    29.91F
$$

WIZ032>034-041-042-053>061-221400-
SOUTHWEST WISCONSIN

CITY           SKY/WX    TMP DP  RH WIND       PRES   REMARKS
LA CROSSE      CLOUDY    79  70  74 S8        29.89R HX  82
SPARTA         CLOUDY    77  68  73 SW5       29.91R
VIROQUA        FAIR      76  69  79 SW8G17    29.94R
BOSCOBEL       SUNNY     80  69  69 S7        29.92R HX  83
PRAIRIE DU CHI SUNNY     78  67  68 SW3       29.92R HX  81
PLATTEVILLE    FAIR      75  69  81 S10       29.96S
$$

WIZ056-057-062-063-064-067-068-221400-
SOUTH CENTRAL WISCONSIN

CITY           SKY/WX    TMP DP  RH WIND       PRES   REMARKS
BARABOO/DELLS  MOSUNNY   77  66  69 SW12G18   29.92S
LONE ROCK      SUNNY     81  69  67 SW6       29.92F HX  84
WATERTOWN      PTSUNNY   74  67  79 S9        29.97S
MADISON        PTSUNNY   76  67  73 S10       29.95S
MIDDLETON      CLOUDY    77  66  68 S9G18     29.95F
MONROE         MOSUNNY   73  66  78 S14G22    29.97S
JANESVILLE     SUNNY     75  64  69 S13       29.97F
$$

WIZ051-052-058>065-066-070>072-221400-
SOUTHEAST WISCONSIN

CITY           SKY/WX    TMP DP  RH WIND       PRES   REMARKS
MILWAUKEE      MOSUNNY   75  65  70 S18       29.97F
WAUKESHA       MOSUNNY   72  64  78 S12       30.00F
MILWAUKEE/TIMM SUNNY     75  63  64 S12       29.98F
RACINE         SUNNY     75  65  70 SW13      30.00F
BURLINGTON     SUNNY     71  65  80 S14G20    29.99F
KENOSHA        SUNNY     75  66  73 S13       30.00F
FOND DU LAC    PTSUNNY   75  66  73 S18G28    29.93F
SHEBOYGAN      MOSUNNY   74  67  78 S12       29.96S
WEST BEND      PTSUNNY   73  63  68 SW8       29.97S
JUNEAU         PTSUNNY   73  53  48 S12       29.97F
$$

LSZ147-162-221400-
LAKE SUPERIOR

STATION/POSITION TIME  TEMP    WIND        PRES    WAVE
                       AIR SEA DIR/SP/G            HT/PER
                 (UTC) (F)     (DEG/KT/KT) (MB)    (FT/S)
W MID LAKE BUOY  1250   58 39  230/  6/  8 1005.8F   2/ 3
PORT WING        1200   70     240/ 11/ 16 1007.8R
SAXON HARBOR     1300          250/  7/ 23 1008.1R
$$

LMZ867-665-643>646-221400-
LAKE MICHIGAN

STATION/POSITION TIME  TEMP    WIND        PRES    WAVE
                       AIR SEA DIR/SP/G            HT/PER
                 (UTC) (F)     (DEG/KT/KT) (MB)    (FT/S)
N MID LAKE BUOY  1250   62 57  190/ 19/ 23 1012.0F   3/ 5
NORTHPORT PIER   1220   67     170/  9/ 22 1012.9F
KEWAUNEE LAKESHO 1300   55     180/ 13/ 14 1013.8F
SHEBOYGAN LAKESH 1300   70     180/ 16/ 17 1014.7R
PORT WASHINGTON  1240   62     190/  9/ 13 1015.2F
ATWATER BUOY     1300   56     170/ 10     1015.8F
MILWAUKEE LAKESH 1300   73     210/ 11/ 14   N/A
S MID LAKE BUOY  1250   70 68  180/ 16/ 17 1016.5F
KENOSHA   LAKESH 1300   63     170/ 16/ 17   N/A
$$

TC  - TEMPERATURE IN CELSIUS
VSB - VISIBILITY IN STATUTE MILES
WCI - WIND CHILL INDEX
HX  - HEAT INDEX




USA.gov is the U.S. government's official web portal to all federal, state and local government web resources and services.